LNI813 WALL-WAFF

Flight info

Callsign LNI813
Flight time 0h 52m
Altitude 25000
Route KALKU
Aircraft B738/M-SDE2E3FGHIRWXY/LB1

Departure

Time 2026-05-07 06:22
Airport Sultan Aji Muhammad Sulaiman Sepinggan International Airport (WALL)

Arrival

Time 2026-05-07 07:14
Airport Mutiara - SIS Al-Jufrie Airport (WAFF)
Time Latitude Longitude Altitude Speed Heading
2026-05-07 05:36 -1.26315 116.89850 20 ft 0 kts 335°
2026-05-07 06:13 -1.26329 116.89856 20 ft 4 kts 335°
2026-05-07 06:14 -1.26353 116.89867 20 ft 4 kts 346°
2026-05-07 06:14 -1.26378 116.89867 21 ft 4 kts 30°
2026-05-07 06:14 -1.26394 116.89851 20 ft 1 kts 65°
2026-05-07 06:14 -1.26396 116.89846 20 ft 0 kts 65°
2026-05-07 06:18 -1.26393 116.89853 20 ft 3 kts 66°
2026-05-07 06:18 -1.26374 116.89896 20 ft 10 kts 66°
2026-05-07 06:18 -1.26341 116.89975 20 ft 15 kts 68°
2026-05-07 06:19 -1.26358 116.90062 20 ft 13 kts 134°
2026-05-07 06:19 -1.26357 116.90149 20 ft 15 kts 67°
2026-05-07 06:19 -1.26314 116.90251 20 ft 17 kts 67°
2026-05-07 06:19 -1.26270 116.90356 20 ft 16 kts 66°
2026-05-07 06:20 -1.26281 116.90444 22 ft 9 kts 129°
2026-05-07 06:20 -1.26286 116.90450 20 ft 0 kts 133°
2026-05-07 06:20 -1.26287 116.90451 20 ft 1 kts 133°
2026-05-07 06:20 -1.26300 116.90461 21 ft 5 kts 143°
2026-05-07 06:21 -1.26349 116.90479 21 ft 10 kts 174°
2026-05-07 06:21 -1.26413 116.90451 21 ft 6 kts 240°
2026-05-07 06:21 -1.26424 116.90425 23 ft 8 kts 247°
2026-05-07 06:21 -1.26543 116.90140 19 ft 89 kts 247°
2026-05-07 06:22 -1.26898 116.89309 29 ft 168 kts 246°
2026-05-07 06:22 -1.27842 116.87097 2147 ft 166 kts 247°
2026-05-07 06:22 -1.28299 116.85960 2746 ft 190 kts 250°
2026-05-07 06:23 -1.28773 116.84669 3306 ft 205 kts 249°
2026-05-07 06:23 -1.29378 116.83273 3551 ft 232 kts 247°
2026-05-07 06:23 -1.30077 116.81735 4005 ft 253 kts 247°
2026-05-07 06:23 -1.30785 116.80100 4800 ft 257 kts 248°
2026-05-07 06:24 -1.31480 116.78462 5629 ft 262 kts 248°
2026-05-07 06:24 -1.32181 116.76743 6409 ft 270 kts 248°
2026-05-07 06:24 -1.32913 116.74997 7186 ft 274 kts 248°
2026-05-07 06:24 -1.33651 116.73231 7999 ft 278 kts 248°
2026-05-07 06:25 -1.34413 116.71428 8759 ft 284 kts 244°
2026-05-07 06:25 -1.35690 116.69930 9541 ft 288 kts 211°
2026-05-07 06:25 -1.37561 116.69355 10310 ft 287 kts 179°
2026-05-07 06:25 -1.39531 116.69767 10847 ft 299 kts 154°
2026-05-07 06:26 -1.41332 116.70953 11031 ft 322 kts 135°
2026-05-07 06:26 -1.42750 116.72758 11395 ft 336 kts 117°
2026-05-07 06:26 -1.43418 116.75000 12050 ft 339 kts 92°
2026-05-07 06:26 -1.43165 116.77332 12849 ft 338 kts 76°
2026-05-07 06:27 -1.42521 116.79586 13474 ft 345 kts 71°
2026-05-07 06:27 -1.41744 116.81872 14099 ft 348 kts 70°
2026-05-07 06:27 -1.40949 116.84160 14792 ft 349 kts 71°
2026-05-07 06:27 -1.40165 116.86478 15341 ft 355 kts 71°
2026-05-07 06:28 -1.39396 116.88835 15997 ft 356 kts 72°
2026-05-07 06:28 -1.38643 116.91209 16609 ft 360 kts 72°
2026-05-07 06:28 -1.37896 116.93616 17199 ft 364 kts 73°
2026-05-07 06:28 -1.37156 116.96039 17843 ft 366 kts 73°
2026-05-07 06:29 -1.36411 116.98498 18312 ft 372 kts 73°
2026-05-07 06:29 -1.35668 117.00980 18882 ft 372 kts 73°
2026-05-07 06:29 -1.34933 117.03443 19342 ft 377 kts 73°
2026-05-07 06:29 -1.34180 117.05966 19827 ft 380 kts 73°
2026-05-07 06:30 -1.33420 117.08509 20352 ft 382 kts 74°
2026-05-07 06:30 -1.32654 117.11065 20775 ft 386 kts 74°
2026-05-07 06:30 -1.31879 117.13652 21323 ft 387 kts 74°
2026-05-07 06:30 -1.31107 117.16223 21729 ft 392 kts 74°
2026-05-07 06:31 -1.30319 117.18852 22164 ft 395 kts 74°
2026-05-07 06:31 -1.29528 117.21493 22630 ft 397 kts 74°
2026-05-07 06:31 -1.28732 117.24148 23066 ft 400 kts 74°
2026-05-07 06:31 -1.27929 117.26826 23475 ft 403 kts 74°
2026-05-07 06:32 -1.27124 117.29513 23833 ft 405 kts 74°
2026-05-07 06:32 -1.26586 117.31304 24085 ft 406 kts 74°
2026-05-07 06:32 -1.25772 117.34021 24451 ft 408 kts 74°
2026-05-07 06:32 -1.24687 117.37637 24767 ft 411 kts 74°
2026-05-07 06:33 -1.23865 117.40377 24781 ft 414 kts 74°
2026-05-07 06:33 -1.23031 117.43159 24792 ft 420 kts 74°
2026-05-07 06:33 -1.22185 117.45978 24788 ft 422 kts 74°
2026-05-07 06:33 -1.21350 117.48756 24788 ft 421 kts 74°
2026-05-07 06:34 -1.20775 117.50657 24788 ft 421 kts 73°
2026-05-07 06:34 -1.19932 117.53429 24790 ft 421 kts 73°
2026-05-07 06:34 -1.19083 117.56234 24793 ft 421 kts 73°
2026-05-07 06:34 -1.18237 117.59043 24793 ft 421 kts 73°
2026-05-07 06:35 -1.17404 117.61816 24788 ft 421 kts 73°
2026-05-07 06:35 -1.16561 117.64627 24788 ft 421 kts 73°
2026-05-07 06:35 -1.15721 117.67428 24790 ft 421 kts 73°
2026-05-07 06:35 -1.14879 117.70235 24789 ft 421 kts 73°
2026-05-07 06:36 -1.14038 117.73039 24792 ft 421 kts 73°
2026-05-07 06:36 -1.13196 117.75846 24790 ft 421 kts 73°
2026-05-07 06:36 -1.12354 117.78652 24788 ft 422 kts 73°
2026-05-07 06:36 -1.11512 117.81455 24788 ft 421 kts 73°
2026-05-07 06:37 -1.10669 117.84262 24787 ft 422 kts 73°
2026-05-07 06:37 -1.09825 117.87073 24786 ft 421 kts 73°
2026-05-07 06:37 -1.08994 117.89840 24786 ft 421 kts 73°
2026-05-07 06:37 -1.08152 117.92644 24787 ft 421 kts 73°
2026-05-07 06:38 -1.07310 117.95448 24789 ft 421 kts 73°
2026-05-07 06:38 -1.06465 117.98259 24790 ft 421 kts 73°
2026-05-07 06:38 -1.05622 118.01070 24790 ft 421 kts 73°
2026-05-07 06:38 -1.04781 118.03870 24788 ft 421 kts 73°
2026-05-07 06:39 -1.03939 118.06674 24791 ft 421 kts 73°
2026-05-07 06:39 -1.03095 118.09482 24785 ft 421 kts 73°
2026-05-07 06:39 -1.02255 118.12280 24789 ft 421 kts 73°
2026-05-07 06:39 -1.01412 118.15084 24789 ft 421 kts 73°
2026-05-07 06:40 -1.00568 118.17895 24790 ft 421 kts 73°
2026-05-07 06:40 -0.99727 118.20694 24792 ft 421 kts 73°
2026-05-07 06:40 -0.98896 118.23463 24792 ft 422 kts 73°
2026-05-07 06:40 -0.98044 118.26302 24792 ft 422 kts 73°
2026-05-07 06:41 -0.97208 118.29085 24788 ft 422 kts 73°
2026-05-07 06:41 -0.96362 118.31898 24791 ft 422 kts 73°
2026-05-07 06:41 -0.95517 118.34707 24789 ft 422 kts 73°
2026-05-07 06:41 -0.94674 118.37515 24789 ft 422 kts 73°
2026-05-07 06:42 -0.93831 118.40323 24787 ft 422 kts 73°
2026-05-07 06:42 -0.92985 118.43138 24786 ft 422 kts 73°
2026-05-07 06:42 -0.92142 118.45947 24784 ft 421 kts 73°
2026-05-07 06:42 -0.91298 118.48754 24787 ft 421 kts 73°
2026-05-07 06:43 -0.90494 118.51539 24613 ft 422 kts 76°
2026-05-07 06:43 -0.89850 118.54397 24259 ft 421 kts 78°
2026-05-07 06:43 -0.89297 118.57254 23866 ft 416 kts 79°
2026-05-07 06:43 -0.88769 118.60088 23483 ft 412 kts 79°
2026-05-07 06:44 -0.88239 118.62888 23044 ft 408 kts 79°
2026-05-07 06:44 -0.87700 118.65656 22591 ft 403 kts 78°
2026-05-07 06:44 -0.87158 118.68379 22161 ft 397 kts 78°
2026-05-07 06:44 -0.86615 118.71076 21744 ft 393 kts 78°
2026-05-07 06:45 -0.86082 118.73709 21332 ft 389 kts 78°
2026-05-07 06:45 -0.85549 118.76348 20924 ft 385 kts 78°
2026-05-07 06:45 -0.85021 118.78966 20522 ft 383 kts 78°
2026-05-07 06:45 -0.84494 118.81573 20120 ft 381 kts 78°
2026-05-07 06:46 -0.83968 118.84170 19736 ft 380 kts 78°
2026-05-07 06:46 -0.83450 118.86735 19352 ft 379 kts 78°
2026-05-07 06:46 -0.82929 118.89315 18943 ft 379 kts 78°
2026-05-07 06:46 -0.82408 118.91900 18546 ft 379 kts 78°
2026-05-07 06:47 -0.81886 118.94488 18154 ft 379 kts 78°
2026-05-07 06:47 -0.81364 118.97075 17711 ft 378 kts 78°
2026-05-07 06:47 -0.80843 118.99653 17259 ft 378 kts 78°
2026-05-07 06:47 -0.80331 119.02194 16877 ft 376 kts 78°
2026-05-07 06:48 -0.79818 119.04735 16687 ft 368 kts 78°
2026-05-07 06:48 -0.79315 119.07226 16441 ft 364 kts 78°
2026-05-07 06:48 -0.78818 119.09690 16175 ft 360 kts 78°
2026-05-07 06:48 -0.78325 119.12131 15945 ft 356 kts 78°
2026-05-07 06:49 -0.77838 119.14547 15696 ft 352 kts 78°
2026-05-07 06:49 -0.77355 119.16941 15465 ft 349 kts 78°
2026-05-07 06:49 -0.76883 119.19279 15233 ft 346 kts 78°
2026-05-07 06:49 -0.76408 119.21638 14996 ft 344 kts 78°
2026-05-07 06:50 -0.75935 119.23974 14767 ft 342 kts 78°
2026-05-07 06:50 -0.75466 119.26296 14539 ft 340 kts 78°
2026-05-07 06:50 -0.74999 119.28609 14309 ft 338 kts 77°
2026-05-07 06:50 -0.74536 119.30901 14082 ft 335 kts 77°
2026-05-07 06:51 -0.74083 119.33144 13880 ft 331 kts 78°
2026-05-07 06:51 -0.73632 119.35376 13809 ft 322 kts 77°
2026-05-07 06:51 -0.73196 119.37535 13788 ft 311 kts 77°
2026-05-07 06:51 -0.72773 119.39631 13775 ft 304 kts 78°
2026-05-07 06:52 -0.72359 119.41682 13778 ft 297 kts 77°
2026-05-07 06:52 -0.71956 119.43681 13739 ft 291 kts 78°
2026-05-07 06:52 -0.71515 119.45671 13481 ft 293 kts 72°
2026-05-07 06:52 -0.70797 119.47556 13228 ft 295 kts 65°
2026-05-07 06:53 -0.69944 119.49429 12946 ft 296 kts 64°
2026-05-07 06:53 -0.69072 119.51288 12658 ft 294 kts 64°
2026-05-07 06:53 -0.68209 119.53137 12392 ft 291 kts 64°
2026-05-07 06:53 -0.67375 119.54946 12146 ft 287 kts 65°
2026-05-07 06:54 -0.66551 119.56748 11956 ft 281 kts 65°
2026-05-07 06:54 -0.65749 119.58512 11750 ft 277 kts 65°
2026-05-07 06:54 -0.64957 119.60260 11547 ft 273 kts 65°
2026-05-07 06:54 -0.64183 119.61975 11352 ft 268 kts 65°
2026-05-07 06:55 -0.63420 119.63666 11167 ft 264 kts 65°
2026-05-07 06:55 -0.62659 119.65353 10992 ft 267 kts 65°
2026-05-07 06:55 -0.61895 119.67053 10773 ft 271 kts 65°
2026-05-07 06:55 -0.61126 119.68761 10558 ft 275 kts 65°
2026-05-07 06:56 -0.60335 119.70519 10348 ft 278 kts 65°
2026-05-07 06:56 -0.59540 119.72287 10120 ft 276 kts 65°
2026-05-07 06:56 -0.58758 119.74026 10012 ft 270 kts 65°
2026-05-07 06:56 -0.57994 119.75717 9995 ft 264 kts 64°
2026-05-07 06:57 -0.56902 119.77154 9990 ft 259 kts 39°
2026-05-07 06:57 -0.55329 119.77957 9983 ft 254 kts 12°
2026-05-07 06:57 -0.53583 119.77999 9997 ft 259 kts 348°
2026-05-07 06:57 -0.51859 119.77390 10003 ft 267 kts 336°
2026-05-07 06:58 -0.50152 119.76614 10000 ft 270 kts 335°
2026-05-07 06:58 -0.48437 119.75828 9993 ft 271 kts 336°
2026-05-07 06:58 -0.46776 119.74939 9971 ft 270 kts 320°
2026-05-07 06:58 -0.45719 119.73423 9991 ft 269 kts 289°
2026-05-07 06:59 -0.45525 119.71606 9999 ft 268 kts 261°
2026-05-07 06:59 -0.46185 119.69886 9982 ft 265 kts 233°
2026-05-07 06:59 -0.47553 119.68691 9976 ft 261 kts 205°
2026-05-07 06:59 -0.49295 119.68279 9980 ft 258 kts 177°
2026-05-07 07:00 -0.51021 119.68717 9992 ft 259 kts 150°
2026-05-07 07:00 -0.52356 119.69889 9996 ft 263 kts 123°
2026-05-07 07:00 -0.53065 119.71572 9989 ft 263 kts 99°
2026-05-07 07:00 -0.53595 119.73297 9972 ft 264 kts 124°
2026-05-07 07:01 -0.54977 119.74475 10013 ft 264 kts 152°
2026-05-07 07:01 -0.56637 119.75293 10000 ft 267 kts 154°
2026-05-07 07:01 -0.58348 119.76061 9990 ft 271 kts 161°
2026-05-07 07:01 -0.60212 119.76208 9867 ft 273 kts 193°
2026-05-07 07:02 -0.61897 119.75358 9638 ft 274 kts 224°
2026-05-07 07:02 -0.62921 119.73816 9384 ft 271 kts 252°
2026-05-07 07:02 -0.63075 119.71969 9126 ft 267 kts 282°
2026-05-07 07:02 -0.62336 119.70302 8868 ft 263 kts 310°
2026-05-07 07:03 -0.60934 119.69151 8654 ft 262 kts 332°
2026-05-07 07:03 -0.59282 119.68372 8418 ft 263 kts 337°
2026-05-07 07:03 -0.57594 119.67649 8194 ft 265 kts 337°
2026-05-07 07:03 -0.55906 119.66919 8041 ft 262 kts 337°
2026-05-07 07:04 -0.54282 119.66206 8000 ft 254 kts 338°
2026-05-07 07:04 -0.52575 119.65878 7982 ft 250 kts
2026-05-07 07:04 -0.50918 119.66416 7985 ft 255 kts 33°
2026-05-07 07:04 -0.49688 119.67632 8000 ft 246 kts 59°
2026-05-07 07:05 -0.49166 119.69218 7983 ft 237 kts 86°
2026-05-07 07:05 -0.49412 119.70803 7985 ft 228 kts 112°
2026-05-07 07:05 -0.50234 119.72103 7969 ft 224 kts 132°
2026-05-07 07:05 -0.51485 119.73034 7993 ft 227 kts 153°
2026-05-07 07:06 -0.52930 119.73683 8001 ft 228 kts 155°
2026-05-07 07:06 -0.54367 119.74319 7995 ft 224 kts 154°
2026-05-07 07:06 -0.55779 119.74947 7966 ft 219 kts 154°
2026-05-07 07:06 -0.57164 119.75563 7991 ft 218 kts 154°
2026-05-07 07:07 -0.58556 119.76183 7834 ft 220 kts 154°
2026-05-07 07:07 -0.59925 119.76790 7508 ft 215 kts 154°
2026-05-07 07:07 -0.61274 119.77389 7172 ft 209 kts 154°
2026-05-07 07:07 -0.62586 119.77970 6849 ft 203 kts 155°
2026-05-07 07:08 -0.63873 119.78541 6550 ft 201 kts 154°
2026-05-07 07:08 -0.65150 119.79108 6238 ft 200 kts 155°
2026-05-07 07:08 -0.66413 119.79670 5926 ft 201 kts 155°
2026-05-07 07:08 -0.67694 119.80238 5591 ft 201 kts 155°
2026-05-07 07:09 -0.68968 119.80805 5292 ft 200 kts 154°
2026-05-07 07:09 -0.70237 119.81367 4972 ft 197 kts 155°
2026-05-07 07:09 -0.71474 119.81917 4659 ft 192 kts 155°
2026-05-07 07:09 -0.72680 119.82453 4349 ft 186 kts 155°
2026-05-07 07:10 -0.73867 119.82979 4067 ft 188 kts 156°
2026-05-07 07:10 -0.75041 119.83500 3778 ft 186 kts 156°
2026-05-07 07:10 -0.76216 119.84022 3488 ft 183 kts 155°
2026-05-07 07:10 -0.77378 119.84538 3216 ft 184 kts 156°
2026-05-07 07:11 -0.78558 119.85061 2940 ft 185 kts 156°
2026-05-07 07:11 -0.79726 119.85579 2677 ft 182 kts 156°
2026-05-07 07:11 -0.80875 119.86088 2381 ft 178 kts 156°
2026-05-07 07:11 -0.81985 119.86582 2093 ft 170 kts 155°
2026-05-07 07:12 -0.83055 119.87058 1893 ft 167 kts 156°
2026-05-07 07:12 -0.84069 119.87508 1708 ft 152 kts 156°
2026-05-07 07:12 -0.85030 119.87935 1491 ft 150 kts 156°
2026-05-07 07:12 -0.85978 119.88356 1297 ft 148 kts 158°
2026-05-07 07:13 -0.86963 119.88746 1095 ft 154 kts 157°
2026-05-07 07:13 -0.87919 119.89191 915 ft 151 kts 158°
2026-05-07 07:13 -0.88888 119.89621 710 ft 152 kts 155°
2026-05-07 07:13 -0.89839 119.90057 481 ft 149 kts 155°
2026-05-07 07:14 -0.90782 119.90482 278 ft 147 kts 156°
2026-05-07 07:14 -0.91653 119.90873 229 ft 122 kts 156°
2026-05-07 07:14 -0.92223 119.91130 225 ft 58 kts 156°
2026-05-07 07:14 -0.92531 119.91271 226 ft 42 kts 154°
2026-05-07 07:15 -0.92695 119.91372 220 ft 11 kts 176°
2026-05-07 07:15 -0.92688 119.91338 221 ft 9 kts 339°
2026-05-07 07:15 -0.92608 119.91305 221 ft 15 kts 336°
2026-05-07 07:15 -0.92489 119.91252 222 ft 22 kts 335°
2026-05-07 07:16 -0.92344 119.91187 225 ft 23 kts 336°
2026-05-07 07:16 -0.92197 119.91121 226 ft 23 kts 335°
2026-05-07 07:16 -0.92054 119.91056 228 ft 22 kts 335°
2026-05-07 07:16 -0.91924 119.90997 229 ft 17 kts 336°
2026-05-07 07:17 -0.91872 119.90931 229 ft 12 kts 247°
2026-05-07 07:17 -0.91904 119.90864 227 ft 10 kts 245°
2026-05-07 07:17 -0.91920 119.90822 226 ft 3 kts 278°
2026-05-07 07:17 -0.91905 119.90805 226 ft 3 kts 323°
2026-05-07 07:18 -0.91878 119.90790 228 ft 6 kts 333°
2026-05-07 07:18 -0.91848 119.90775 228 ft 5 kts 335°
2026-05-07 07:18 -0.91830 119.90759 228 ft 2 kts 280°
2026-05-07 07:18 -0.91836 119.90743 229 ft 3 kts 246°
2026-05-07 07:19 -0.91844 119.90727 226 ft 2 kts 245°
2026-05-07 07:19 -0.91848 119.90718 226 ft 2 kts 245°
2026-05-07 07:19 -0.91850 119.90714 226 ft 0 kts 245°